Hourly Weather Roundup
Issued by NWS Central Illinois

Home | Current Version | Previous Version | Text Only | Print | Product List | Glossary On
Versions: 1 2 3 4 5 6 7 8 9 10 11 12 13 14 15 16 17 18 19 20 21 22 23 24 25 26 27 28 29 30 31 32 33 34 35 36 37 38 39 40 41 42 43 44 45 46 47 48 49 50
000
NZUS43 KILX 070510
HWRILX

AREA WEATHER ROUNDUP
NATIONAL WEATHER SERVICE, LINCOLN IL
1100 PM CST FRI MAR 06 2015


CITY           SKY/WX    TMP DP  RH WIND       PRES   REMARKS
BLOOMINGTON    PTCLDY    26  21  81 SW20      30.19F WCI  12
CHAMPAIGN      MOCLDY    23  16  74 S20       30.24F WCI   8
DECATUR        CLEAR     27  18  69 SW18      30.25F WCI  14
EFFINGHAM      CLEAR     26  14  59 S8        30.33F WCI  18
FLORA          CLEAR     24  16  71 S10       30.35F WCI  14
GALESBURG      CLEAR     32  26  79 S9        30.13F WCI  24
JACKSONVILLE   CLEAR     35  25  67 S13       30.22S WCI  26
LACON          PTCLDY    27  20  75 S6        30.14F WCI  20
LAWRENCEVILLE  CLEAR     24  14  65 SW10      30.37S WCI  14
LITCHFIELD     CLEAR     25  18  75 S12       30.28F WCI  14
$$


CITY           SKY/WX    TMP DP  RH WIND       PRES   REMARKS
LINCOLN        CLEAR     28  21  74 S12       30.24S WCI  18
MACOMB         CLEAR     39  31  71 SW15      30.17F WCI  31
MATTOON        CLEAR     25  14  63 S15G23    30.27F WCI  13
MT CARMEL AP   CLEAR     28  14  54 SW9       30.37S WCI  20
OLNEY-NOBLE AP CLEAR     25  14  63 S7        30.36S WCI  17
PARIS          CLEAR     24  17  74 S16       30.29F WCI  10
PEORIA         CLEAR     28  21  75 S13       30.18F WCI  17
PONTIAC        PTCLDY    27  20  77 S16       30.18F WCI  14
RANTOUL        MOCLDY    26  18  73 S10       30.23F WCI  15
ROBINSON       CLEAR     24  15  66 SW8       30.36F WCI  16
SPRINGFIELD    CLEAR     31  21  66 S20       30.23F WCI  19
TAYLORVILLE    CLEAR     27  19  74 S14       30.26F WCI  15
$$

...REGIONAL REPORTS...


CITY           SKY/WX    TMP DP  RH WIND       PRES   REMARKS
CHICAGO O`HARE MOCLDY    25  17  72 SW10      30.13F WCI  15
KANKAKEE       PTCLDY    21  16  79 S16       30.19F WCI   7
MOLINE         CLOUDY    39  27  62 SW9       30.09S WCI  33
MOUNT VERNON   CLEAR     27  16  63 SW14      30.36F WCI  15
PITTSFIELD     CLEAR     44  31  60 SW12G17   30.23S
QUINCY         CLEAR     42  29  59 SW15      30.19F WCI  34
ROCKFORD       MOCLDY    23  17  78 S7        30.11F WCI  15
$$


CITY           SKY/WX    TMP DP  RH WIND       PRES   REMARKS
BURLINGTON     CLEAR     37  29  72 SW10      30.13F WCI  30
CEDAR RAPIDS   MOCLDY    33  27  78 NW8       30.09S WCI  26
DES MOINES     CLOUDY    44  24  45 CALM      30.12S
KIRKSVILLE     CLEAR     42  31  64 SW12      30.18F
OTTUMWA        PTCLDY    43  25  49 SW15      30.12S
ST LOUIS       CLEAR     37  22  54 S7        30.31S WCI  32
$$


CITY           SKY/WX    TMP DP  RH WIND       PRES   REMARKS
TERRE HAUTE    CLEAR     21  11  65 S8        30.32F WCI  11
EVANSVILLE     CLEAR     25  13  60 SW10      30.40F WCI  15
INDIANAPOLIS   PTCLDY    23   9  55 SW13      30.28F WCI  11
LAFAYETTE      CLEAR     22  12  65 SW7       30.26F WCI  13
MADISON        PTCLDY    24  17  74 CALM      30.08F
MILWAUKEE      MOCLDY    23  16  74 SW7       30.10F WCI  15
$$





USA.gov is the U.S. government's official web portal to all federal, state and local government web resources and services.